Bellaire, MI

5:46 AM EDT on September 26, 2017 (GMT -0400)
Antrim County

Weather History for KACB - October, 2013

Change the Weather History Date:

Monday, October 14, 2013

  Actual Average (KCVX) Record (KCVX)
Temperature  
Mean Temperature 46 °F -  
Max Temperature 59 °F 66 °F 71 °F (2008)
Min Temperature 32 °F 48 °F 28 °F (2002)
Degree Days  
Heating Degree Days 20    
Moisture  
Dew Point 38 °F    
Average Humidity 80    
Maximum Humidity 100    
Minimum Humidity 42    
Precipitation  
Precipitation 0.00 in - - ()
Sea Level Pressure  
Sea Level Pressure 30.38 in    
Wind  
Wind Speed 1 mph (North)    
Max Wind Speed 9 mph    
Max Gust Speed -    
Visibility 8 miles    
Events      
Averages and records for this station are not official NWS values.
T = Trace of Precipitation, MM = Missing Value Source: NWS Daily Summary

Daily Weather History Graph

Daily Weather History Graph

Search for Another Location

Airport or City:

Trip Planner

Search our weather history database for the weather conditions in past years. The results will help you decide how hot, cold, wet, or windy it might be!

Date:

Astronomy

Oct. 14, 2013 Rise Set
Actual Time 7:55 AM EDT 6:57 PM EDT
Civil Twilight 7:25 AM EDT 7:26 PM EDT
Nautical Twilight 6:51 AM EDT 8:00 PM EDT
Astronomical Twilight 6:17 AM EDT 8:34 PM EDT
Moon 4:36 PM EDT (10/14) 2:59 AM EDT (10/14)
Length of Visible Light 12h 00m
Length of Day
11h 01m
Waxing Gibbous, 79% of the Moon is Illuminated
Oct 14
Waxing Gibbous
Oct 18
Full
Oct 26
Last Quarter
Nov 3
New
Nov 10
First Quarter

Hourly Weather History & Observations

Time (EDT) Temp. Windchill Dew Point Humidity Pressure Visibility Wind Dir Wind Speed Gust Speed Precip Events Conditions
12:15 AM 45.1 °F - 42.8 °F 91% 30.40 in 10.0 mi Calm Calm - N/A   Clear
12:36 AM 42.1 °F - 40.5 °F 94% 30.40 in 10.0 mi Calm Calm - N/A   Clear
12:56 AM 40.8 °F - 39.6 °F 95% 30.40 in 10.0 mi Calm Calm - N/A   Clear
1:16 AM 41.2 °F - 40.1 °F 96% 30.40 in 10.0 mi Calm Calm - N/A   Clear
1:36 AM 39.0 °F - 37.9 °F 96% 30.41 in 3.0 mi Calm Calm - N/A   Clear
1:56 AM 40.1 °F - 39.2 °F 97% 30.42 in 7.0 mi Calm Calm - N/A   Clear
2:16 AM 38.3 °F - 37.4 °F 97% 30.42 in 4.0 mi Calm Calm - N/A   Clear
2:36 AM 37.9 °F - 37.0 °F 97% 30.42 in 7.0 mi Calm Calm - N/A   Clear
2:56 AM 38.1 °F - 37.4 °F 97% 30.43 in 7.0 mi Calm Calm - N/A   Clear
3:16 AM 37.6 °F - 36.9 °F 97% 30.43 in 10.0 mi Calm Calm - N/A   Clear
3:36 AM 36.3 °F - 35.8 °F 98% 30.43 in 3.0 mi Calm Calm - N/A   Clear
3:56 AM 36.7 °F - 36.0 °F 97% 30.43 in 3.0 mi Calm Calm - N/A   Clear
4:16 AM 35.6 °F - 35.1 °F 98% 30.43 in 1.5 mi Calm Calm - N/A   Mist
4:36 AM 36.3 °F - 35.8 °F 98% 30.43 in 1.5 mi Calm Calm - N/A   Scattered Clouds
4:56 AM 35.2 °F - 34.7 °F 98% 30.44 in 0.8 mi Calm Calm - N/A   Mostly Cloudy
5:16 AM 34.7 °F - 34.2 °F 98% 30.44 in 1.8 mi Calm Calm - N/A   Scattered Clouds
5:36 AM 34.7 °F - 34.2 °F 98% 30.44 in 3.0 mi Calm Calm - N/A   Clear
5:56 AM 33.6 °F - 32.9 °F 97% 30.45 in 2.5 mi Calm Calm - N/A   Clear
6:16 AM 33.3 °F - 32.7 °F 98% 30.45 in 2.0 mi Calm Calm - N/A   Clear
6:36 AM 33.6 °F - 32.9 °F 97% 30.45 in 10.0 mi Calm Calm - N/A   Clear
6:56 AM 33.8 °F - 33.1 °F 97% 30.45 in 10.0 mi Calm Calm - N/A   Clear
7:16 AM 32.9 °F - 32.4 °F 98% 30.45 in 7.0 mi Calm Calm - N/A   Clear
7:36 AM 32.4 °F - 32.0 °F 99% 30.45 in 7.0 mi Calm Calm - N/A   Clear
7:56 AM 32.0 °F - 32.0 °F 100% 30.44 in 10.0 mi Calm Calm - N/A   Scattered Clouds
8:16 AM 32.2 °F - 32.0 °F 99% 30.44 in 10.0 mi Calm Calm - N/A   Mostly Cloudy
8:36 AM 32.5 °F - 32.2 °F 99% 30.45 in 4.0 mi Calm Calm - N/A   Scattered Clouds
8:56 AM 34.7 °F - 34.2 °F 98% 30.45 in 10.0 mi Calm Calm - N/A   Clear
9:16 AM 37.8 °F - 37.4 °F 99% 30.44 in 10.0 mi Calm Calm - N/A   Clear
9:36 AM 39.9 °F - 39.4 °F 98% 30.45 in 10.0 mi Calm Calm - N/A   Clear
9:56 AM 42.1 °F - 41.5 °F 98% 30.46 in 10.0 mi Calm Calm - N/A   Clear
10:16 AM 43.9 °F - 43.2 °F 97% 30.46 in 10.0 mi Calm Calm - N/A   Clear
10:36 AM 46.4 °F - 42.1 °F 85% 30.45 in 10.0 mi Calm Calm - N/A   Clear
10:56 AM 47.8 °F - 40.8 °F 77% 30.44 in 10.0 mi Calm Calm - N/A   Clear
11:56 AM 54.7 °F - 36.1 °F 50% 30.43 in 10.0 mi East 3.5 mph - N/A   Clear
12:16 PM 55.6 °F - 36.7 °F 49% 30.42 in 10.0 mi NNE 9.2 mph - N/A   Clear
12:36 PM 55.0 °F - 37.0 °F 51% 30.41 in 10.0 mi Calm Calm - N/A   Clear
12:56 PM 55.8 °F - 37.0 °F 49% 30.41 in 10.0 mi NNE 5.8 mph - N/A   Clear
1:16 PM 56.3 °F - 37.4 °F 49% 30.41 in 10.0 mi North 4.6 mph - N/A   Clear
1:36 PM 56.3 °F - 37.4 °F 49% 30.41 in 10.0 mi NW 3.5 mph - N/A   Clear
1:56 PM 57.2 °F - 37.2 °F 47% 30.41 in 10.0 mi WNW 4.6 mph - N/A   Clear
2:16 PM 58.1 °F - 37.2 °F 46% 30.40 in 10.0 mi Calm Calm - N/A   Clear
2:36 PM 58.1 °F - 37.0 °F 45% 30.40 in 10.0 mi North 3.5 mph - N/A   Clear
2:56 PM 58.8 °F - 37.6 °F 45% 30.38 in 10.0 mi NW 6.9 mph - N/A   Clear
3:16 PM 59.0 °F - 37.8 °F 45% 30.37 in 10.0 mi NNW 6.9 mph - N/A   Clear
3:36 PM 59.2 °F - 37.9 °F 45% 30.36 in 10.0 mi NNW 5.8 mph - N/A   Clear
3:56 PM 59.2 °F - 36.7 °F 43% 30.35 in 10.0 mi North 5.8 mph - N/A   Clear
4:16 PM 59.5 °F - 36.5 °F 42% 30.34 in 10.0 mi NE 4.6 mph - N/A   Clear
4:36 PM 59.9 °F - 36.5 °F 42% 30.33 in 10.0 mi Calm Calm - N/A   Clear
4:56 PM 59.2 °F - 36.9 °F 43% 30.32 in 10.0 mi NNE 3.5 mph - N/A   Clear
5:16 PM 58.1 °F - 41.0 °F 53% 30.32 in 10.0 mi WNW 5.8 mph - N/A   Clear
5:36 PM 56.8 °F - 41.7 °F 57% 30.32 in 10.0 mi NW 3.5 mph - N/A   Clear
5:56 PM 56.3 °F - 42.1 °F 59% 30.32 in 10.0 mi Calm Calm - N/A   Clear
6:16 PM 55.4 °F - 42.8 °F 63% 30.32 in 10.0 mi NW 4.6 mph - N/A   Clear
6:36 PM 54.5 °F - 42.1 °F 63% 30.32 in 10.0 mi North 5.8 mph - N/A   Clear
6:57 PM 52.9 °F - 42.4 °F 68% 30.31 in 10.0 mi Calm Calm - N/A   Clear
7:16 PM 49.6 °F - 43.0 °F 78% 30.31 in 10.0 mi Calm Calm - N/A   Clear
7:36 PM 47.8 °F - 42.8 °F 83% 30.31 in 10.0 mi Calm Calm - N/A   Clear
7:57 PM 44.6 °F - 41.2 °F 88% 30.31 in 10.0 mi Calm Calm - N/A   Clear
8:16 PM 44.8 °F - 41.9 °F 90% 30.30 in 10.0 mi Calm Calm - N/A   Clear
8:36 PM 44.4 °F - 41.5 °F 90% 30.30 in 10.0 mi Calm Calm - N/A   Clear
8:57 PM 44.1 °F - 41.7 °F 91% 30.30 in 10.0 mi Calm Calm - N/A   Clear
9:16 PM 42.1 °F - 40.3 °F 93% 30.29 in 10.0 mi Calm Calm - N/A   Clear
9:36 PM 43.0 °F - 41.7 °F 95% 30.30 in 10.0 mi Calm Calm - N/A   Clear
9:56 PM 41.4 °F - 39.9 °F 95% 30.30 in 10.0 mi Calm Calm - N/A   Clear
10:16 PM 41.0 °F - 39.6 °F 95% 30.29 in 10.0 mi Calm Calm - N/A   Clear
10:37 PM 45.3 °F 44.0 °F 39.4 °F 80% 30.29 in 10.0 mi ENE 3.5 mph - N/A   Clear
10:56 PM 43.7 °F 42.1 °F 38.7 °F 82% 30.30 in 10.0 mi West 3.5 mph - N/A   Clear
11:16 PM 42.8 °F - 39.2 °F 87% 30.30 in 10.0 mi Calm Calm - N/A   Clear
11:37 PM 40.3 °F - 37.8 °F 91% 30.29 in 10.0 mi Calm Calm - N/A   Clear
11:56 PM 39.7 °F - 37.9 °F 93% 30.28 in 10.0 mi Calm Calm - N/A   Clear